Location: Codford Saint Peter
(51.1597°N, 2.0531°W)
Time: 03:50:20
(UTC+00:00)

Cosmos 1844 - Pass Details

Date: 18 September 2020
Orbit: 824 x 866 km, 70.9° (Epoch: 18 October)

Event Time Altitude Azimuth Distance (km) Brightness Sun altitude
Rises 21:10:21 0° 216° (SW) 3,412 6.8 -26.1°
Reaches altitude 10° 21:12:49 10° 218° (SW) 2,474 6.1 -26.4°
Maximum altitude 21:18:29 71° 302° (WNW) 894 3.9 -27.0°
Drops below altitude 10° 21:24:08 10° 27° (NNE) 2,461 6.3 -27.7°
Sets 21:26:35 0° 30° (NNE) 3,393 7.0 -28.0°
